Location: Petruro
(41.0333°N, 14.7833°E)
Time: 08:38:30
(UTC+00:00)

IRS-1C - Pass Details

Date: 20 June 2021
Orbit: 815 x 817 km, 98.9° (Epoch: 03 August)

Event Time Altitude Azimuth Distance (km) Brightness Sun altitude
Rises 02:04:13 0° 13° (NNE) 3,353 8.5 -13.0°
Reaches altitude 10° 02:06:34 10° 14° (NNE) 2,417 7.6 -12.7°
Maximum altitude 02:11:56 90° 115° (ESE) 822 4.1 -12.0°
Enters shadow 02:17:09 11° 195° (SSW) 2,354 6.0 -11.3°
